Time,TemperatureF,DewpointF,PressureIn,WindDirection,WindDirectionDegrees,WindSpeedMPH,WindSpeedGustMPH,Humidity,HourlyPrecipIn,Conditions,Clouds,dailyrainin,SoftwareType,DateUTC
2013-02-12 00:12:00,32.8,25.0,29.52,SE,131,0.0,1.0,74,0.00,,,0.00,weatherlink.com 1.10,2013-02-12 06:12:00,
2013-02-12 00:27:00,32.1,25.0,29.52,ESE,120,0.0,1.0,75,0.00,,,0.00,weatherlink.com 1.10,2013-02-12 06:27:00,
2013-02-12 00:42:00,30.6,25.0,29.52,ESE,120,0.0,0.0,79,0.00,,,0.00,weatherlink.com 1.10,2013-02-12 06:42:00,
2013-02-12 00:57:00,29.8,25.0,29.52,ESE,120,0.0,0.0,81,0.00,,,0.00,weatherlink.com 1.10,2013-02-12 06:57:00,
2013-02-12 01:12:00,29.7,25.0,29.52,ESE,120,0.0,0.0,81,0.00,,,0.00,weatherlink.com 1.10,2013-02-12 07:12:00,
2013-02-12 01:27:00,29.7,25.0,29.52,ESE,120,0.0,0.0,82,0.00,,,0.00,weatherlink.com 1.10,2013-02-12 07:27:00,
2013-02-12 01:42:00,29.6,25.0,29.52,ESE,120,0.0,0.0,82,0.00,,,0.00,weatherlink.com 1.10,2013-02-12 07:42:00,
2013-02-12 01:57:00,28.5,24.0,29.52,ESE,120,0.0,0.0,83,0.00,,,0.00,weatherlink.com 1.10,2013-02-12 07:57:00,
2013-02-12 02:12:00,28.6,24.0,29.52,ESE,120,0.0,0.0,84,0.00,,,0.00,weatherlink.com 1.10,2013-02-12 08:12:00,
2013-02-12 02:27:00,28.8,24.0,29.52,ESE,120,0.0,0.0,83,0.00,,,0.00,weatherlink.com 1.10,2013-02-12 08:27:00,
2013-02-12 02:42:00,29.1,25.0,29.52,ESE,120,0.0,1.0,83,0.00,,,0.00,weatherlink.com 1.10,2013-02-12 08:42:00,
2013-02-12 02:57:00,28.0,24.0,29.53,SSW,196,0.0,1.0,83,0.00,,,0.00,weatherlink.com 1.10,2013-02-12 08:57:00,
2013-02-12 03:12:00,26.7,23.0,29.53,SSW,212,0.0,0.0,86,0.00,,,0.00,weatherlink.com 1.10,2013-02-12 09:12:00,
2013-02-12 03:27:00,27.2,24.0,29.52,SSW,213,0.0,0.0,88,0.00,,,0.00,weatherlink.com 1.10,2013-02-12 09:27:00,
2013-02-12 03:42:00,27.2,24.0,29.52,SSW,212,0.0,0.0,86,0.00,,,0.00,weatherlink.com 1.10,2013-02-12 09:42:00,
2013-02-12 03:57:00,26.7,23.0,29.52,SSW,212,0.0,0.0,87,0.00,,,0.00,weatherlink.com 1.10,2013-02-12 09:57:00,
2013-02-12 04:12:00,26.7,24.0,29.52,SSW,213,0.0,0.0,88,0.00,,,0.00,weatherlink.com 1.10,2013-02-12 10:12:00,
2013-02-12 04:28:00,26.7,23.0,29.52,South,176,0.0,1.0,87,0.00,,,0.00,weatherlink.com 1.10,2013-02-12 10:28:00,
2013-02-12 04:43:00,26.1,23.0,29.52,South,176,0.0,0.0,88,0.00,,,0.00,weatherlink.com 1.10,2013-02-12 10:43:00,
2013-02-12 04:58:00,25.5,23.0,29.52,South,176,0.0,0.0,89,0.00,,,0.00,weatherlink.com 1.10,2013-02-12 10:58:00,
2013-02-12 05:13:00,25.2,22.0,29.53,South,176,0.0,0.0,89,0.00,,,0.00,weatherlink.com 1.10,2013-02-12 11:13:00,
2013-02-12 05:28:00,24.3,22.0,29.53,South,176,0.0,0.0,89,0.00,,,0.00,weatherlink.com 1.10,2013-02-12 11:28:00,
2013-02-12 05:43:00,24.9,23.0,29.52,South,176,0.0,0.0,92,0.00,,,0.00,weatherlink.com 1.10,2013-02-12 11:43:00,
2013-02-12 05:58:00,25.5,23.0,29.52,South,176,0.0,0.0,91,0.00,,,0.00,weatherlink.com 1.10,2013-02-12 11:58:00,
2013-02-12 06:13:00,24.0,22.0,29.52,South,176,0.0,0.0,90,0.00,,,0.00,weatherlink.com 1.10,2013-02-12 12:13:00,
2013-02-12 06:28:00,23.5,21.0,29.52,South,176,0.0,0.0,90,0.00,,,0.00,weatherlink.com 1.10,2013-02-12 12:28:00,
2013-02-12 06:43:00,24.2,22.0,29.52,South,176,0.0,0.0,92,0.00,,,0.00,weatherlink.com 1.10,2013-02-12 12:43:00,
2013-02-12 06:58:00,24.1,22.0,29.51,South,176,0.0,0.0,92,0.00,,,0.00,weatherlink.com 1.10,2013-02-12 12:58:00,
2013-02-12 07:13:00,24.6,23.0,29.52,SW,219,0.0,1.0,93,0.00,,,0.00,weatherlink.com 1.10,2013-02-12 13:13:00,
2013-02-12 07:28:00,26.3,25.0,29.52,SW,220,0.0,1.0,93,0.00,,,0.00,weatherlink.com 1.10,2013-02-12 13:28:00,
2013-02-12 07:43:00,28.0,26.0,29.54,SSE,155,0.0,1.0,90,0.00,,,0.00,weatherlink.com 1.10,2013-02-12 13:43:00,
2013-02-12 07:58:00,30.8,28.0,29.54,SSE,155,0.0,1.0,89,0.00,,,0.00,weatherlink.com 1.10,2013-02-12 13:58:00,
2013-02-12 08:13:00,34.1,30.0,29.54,SSE,155,0.0,1.0,83,0.00,,,0.00,weatherlink.com 1.10,2013-02-12 14:13:00,
2013-02-12 08:28:00,33.7,28.0,29.53,WNW,283,1.0,2.0,80,0.00,,,0.00,weatherlink.com 1.10,2013-02-12 14:28:00,
2013-02-12 08:43:00,34.1,29.0,29.54,West,259,0.0,2.0,80,0.00,,,0.00,weatherlink.com 1.10,2013-02-12 14:43:00,
2013-02-12 08:58:00,34.7,29.0,29.55,South,172,0.0,2.0,78,0.00,,,0.00,weatherlink.com 1.10,2013-02-12 14:58:00,
2013-02-12 09:13:00,35.6,29.0,29.54,SW,225,0.0,1.0,76,0.00,,,0.00,weatherlink.com 1.10,2013-02-12 15:13:00,
2013-02-12 09:28:00,36.3,28.0,29.53,NNE,20,1.0,3.0,72,0.00,,,0.00,weatherlink.com 1.10,2013-02-12 15:28:00,
2013-02-12 09:43:00,37.5,29.0,29.51,NNW,332,2.0,5.0,70,0.00,,,0.00,weatherlink.com 1.10,2013-02-12 15:43:00,
2013-02-12 09:58:00,38.0,29.0,29.49,ENE,57,2.0,6.0,69,0.00,,,0.00,weatherlink.com 1.10,2013-02-12 15:58:00,
2013-02-12 10:13:00,39.3,28.0,29.48,NNW,331,1.0,5.0,65,0.00,,,0.00,weatherlink.com 1.10,2013-02-12 16:13:00,
2013-02-12 10:28:00,39.7,28.0,29.49,North,354,2.0,6.0,64,0.00,,,0.00,weatherlink.com 1.10,2013-02-12 16:28:00,
2013-02-12 10:43:00,39.6,28.0,29.49,NNE,19,3.0,6.0,63,0.00,,,0.00,weatherlink.com 1.10,2013-02-12 16:43:00,
2013-02-12 10:58:00,40.4,28.0,29.50,West,259,2.0,5.0,61,0.00,,,0.00,weatherlink.com 1.10,2013-02-12 16:58:00,
2013-02-12 11:13:00,40.8,27.0,29.49,North,11,5.0,6.0,59,0.00,,,0.00,weatherlink.com 1.10,2013-02-12 17:13:00,
2013-02-12 11:28:00,41.7,27.0,29.48,East,84,1.0,4.0,57,0.00,,,0.00,weatherlink.com 1.10,2013-02-12 17:28:00,
2013-02-12 11:43:00,42.2,27.0,29.48,NW,316,1.0,6.0,56,0.00,,,0.00,weatherlink.com 1.10,2013-02-12 17:43:00,
2013-02-12 11:59:00,42.7,27.0,29.48,NNE,12,3.0,7.0,55,0.00,,,0.00,weatherlink.com 1.10,2013-02-12 17:59:00,
2013-02-12 12:14:00,44.3,28.0,29.48,West,263,1.0,2.0,53,0.00,,,0.00,weatherlink.com 1.10,2013-02-12 18:14:00,
2013-02-12 12:29:00,43.4,27.0,29.48,North,4,1.0,5.0,53,0.00,,,0.00,weatherlink.com 1.10,2013-02-12 18:29:00,
2013-02-12 12:44:00,43.7,27.0,29.48,West,264,3.0,6.0,53,0.00,,,0.00,weatherlink.com 1.10,2013-02-12 18:44:00,
2013-02-12 12:59:00,44.2,27.0,29.47,SSE,155,1.0,5.0,52,0.00,,,0.00,weatherlink.com 1.10,2013-02-12 18:59:00,
2013-02-12 13:14:00,44.2,27.0,29.46,WNW,297,3.0,5.0,51,0.00,,,0.00,weatherlink.com 1.10,2013-02-12 19:14:00,
2013-02-12 13:29:00,44.2,27.0,29.46,NE,34,1.0,3.0,51,0.00,,,0.00,weatherlink.com 1.10,2013-02-12 19:29:00,
2013-02-12 13:44:00,44.2,27.0,29.44,NE,36,2.0,3.0,51,0.00,,,0.00,weatherlink.com 1.10,2013-02-12 19:44:00,
2013-02-12 13:59:00,44.6,26.0,29.43,NNW,330,2.0,4.0,49,0.00,,,0.00,weatherlink.com 1.10,2013-02-12 19:59:00,
2013-02-12 14:14:00,44.6,26.0,29.42,SE,142,1.0,3.0,49,0.00,,,0.00,weatherlink.com 1.10,2013-02-12 20:14:00,
2013-02-12 14:29:00,45.1,26.0,29.43,ENE,63,1.0,2.0,48,0.00,,,0.00,weatherlink.com 1.10,2013-02-12 20:29:00,
2013-02-12 14:45:00,44.6,26.0,29.42,NE,51,0.0,3.0,49,0.00,,,0.00,weatherlink.com 1.10,2013-02-12 20:45:00,
2013-02-12 14:59:00,45.0,26.0,29.41,ENE,71,0.0,2.0,48,0.00,,,0.00,weatherlink.com 1.10,2013-02-12 20:59:00,
2013-02-12 15:14:00,45.5,27.0,29.39,NNE,23,1.0,3.0,48,0.00,,,0.00,weatherlink.com 1.10,2013-02-12 21:14:00,
2013-02-12 15:29:00,45.7,27.0,29.39,NW,322,2.0,4.0,48,0.00,,,0.00,weatherlink.com 1.10,2013-02-12 21:29:00,
2013-02-12 15:44:00,45.4,27.0,29.39,NW,326,1.0,5.0,48,0.00,,,0.00,weatherlink.com 1.10,2013-02-12 21:44:00,
2013-02-12 15:59:00,44.5,27.0,29.38,NNE,19,3.0,5.0,50,0.00,,,0.00,weatherlink.com 1.10,2013-02-12 21:59:00,
2013-02-12 16:14:00,43.9,26.0,29.38,NE,36,5.0,5.0,50,0.00,,,0.00,weatherlink.com 1.10,2013-02-12 22:14:00,
2013-02-12 16:29:00,43.9,26.0,29.38,NW,321,1.0,4.0,50,0.00,,,0.00,weatherlink.com 1.10,2013-02-12 22:29:00,
2013-02-12 16:44:00,43.9,27.0,29.38,NNW,348,1.0,3.0,51,0.00,,,0.00,weatherlink.com 1.10,2013-02-12 22:44:00,
2013-02-12 16:59:00,43.7,27.0,29.38,NNW,333,0.0,2.0,52,0.00,,,0.00,weatherlink.com 1.10,2013-02-12 22:59:00,
2013-02-12 17:14:00,43.3,27.0,29.37,NNE,32,2.0,2.0,54,0.00,,,0.00,weatherlink.com 1.10,2013-02-12 23:14:00,
2013-02-12 17:29:00,43.0,27.0,29.37,NNE,12,0.0,2.0,54,0.00,,,0.00,weatherlink.com 1.10,2013-02-12 23:29:00,
2013-02-12 17:44:00,42.5,28.0,29.37,North,356,2.0,3.0,56,0.00,,,0.00,weatherlink.com 1.10,2013-02-12 23:44:00,
2013-02-12 17:59:00,41.9,28.0,29.36,North,8,0.0,2.0,58,0.00,,,0.00,weatherlink.com 1.10,2013-02-12 23:59:00,
2013-02-12 18:14:00,41.4,28.0,29.35,North,8,0.0,1.0,59,0.00,,,0.00,weatherlink.com 1.10,2013-02-13 00:14:00,
2013-02-12 18:29:00,40.5,28.0,29.34,SE,138,0.0,3.0,61,0.00,,,0.00,weatherlink.com 1.10,2013-02-13 00:29:00,
2013-02-12 18:44:00,40.7,28.0,29.34,NNE,22,0.0,2.0,62,0.00,,,0.00,weatherlink.com 1.10,2013-02-13 00:44:00,
2013-02-12 18:59:00,40.5,28.0,29.34,North,357,0.0,1.0,62,0.00,,,0.00,weatherlink.com 1.10,2013-02-13 00:59:00,
2013-02-12 19:14:00,40.2,29.0,29.34,SSW,200,1.0,3.0,64,0.00,,,0.00,weatherlink.com 1.10,2013-02-13 01:14:00,
2013-02-12 19:29:00,40.0,29.0,29.34,SSE,149,0.0,1.0,64,0.00,,,0.00,weatherlink.com 1.10,2013-02-13 01:29:00,
2013-02-12 19:44:00,39.5,29.0,29.34,SSE,149,0.0,0.0,66,0.00,,,0.00,weatherlink.com 1.10,2013-02-13 01:44:00,
2013-02-12 19:59:00,39.7,29.0,29.33,SSE,149,0.0,0.0,66,0.00,,,0.00,weatherlink.com 1.10,2013-02-13 01:59:00,
2013-02-12 20:14:00,39.9,29.0,29.33,WNW,301,1.0,2.0,66,0.00,,,0.00,weatherlink.com 1.10,2013-02-13 02:14:00,
2013-02-12 20:29:00,40.0,30.0,29.33,North,358,1.0,2.0,67,0.00,,,0.00,weatherlink.com 1.10,2013-02-13 02:29:00,
2013-02-12 20:44:00,39.7,29.0,29.32,North,358,0.0,1.0,67,0.00,,,0.00,weatherlink.com 1.10,2013-02-13 02:44:00,
2013-02-12 20:59:00,39.9,30.0,29.33,WNW,297,1.0,2.0,67,0.00,,,0.00,weatherlink.com 1.10,2013-02-13 02:59:00,
2013-02-12 21:14:00,39.7,29.0,29.32,NW,325,1.0,2.0,67,0.00,,,0.00,weatherlink.com 1.10,2013-02-13 03:14:00,
2013-02-12 21:29:00,39.4,30.0,29.32,NNE,32,1.0,2.0,68,0.00,,,0.00,weatherlink.com 1.10,2013-02-13 03:29:00,
2013-02-12 21:44:00,39.3,29.0,29.32,North,8,0.0,2.0,68,0.00,,,0.00,weatherlink.com 1.10,2013-02-13 03:44:00,
2013-02-12 21:59:00,39.2,29.0,29.33,NNE,23,0.0,1.0,68,0.00,,,0.00,weatherlink.com 1.10,2013-02-13 03:59:00,
2013-02-12 22:14:00,39.0,29.0,29.32,NNE,23,0.0,0.0,68,0.00,,,0.00,weatherlink.com 1.10,2013-02-13 04:14:00,
2013-02-12 22:29:00,38.8,29.0,29.33,South,180,0.0,1.0,69,0.00,,,0.00,weatherlink.com 1.10,2013-02-13 04:29:00,
2013-02-12 22:45:00,38.3,29.0,29.33,SSW,207,0.0,0.0,70,0.00,,,0.00,weatherlink.com 1.10,2013-02-13 04:45:00,
2013-02-12 22:59:00,38.2,29.0,29.33,SSW,207,0.0,1.0,70,0.00,,,0.00,weatherlink.com 1.10,2013-02-13 04:59:00,
2013-02-12 23:15:00,38.2,29.0,29.33,SSW,207,0.0,1.0,70,0.00,,,0.00,weatherlink.com 1.10,2013-02-13 05:15:00,
2013-02-12 23:29:00,37.7,29.0,29.33,SW,217,0.0,1.0,72,0.00,,,0.00,weatherlink.com 1.10,2013-02-13 05:29:00,
2013-02-12 23:45:00,37.9,30.0,29.32,SW,228,0.0,2.0,72,0.00,,,0.00,weatherlink.com 1.10,2013-02-13 05:45:00,
2013-02-12 23:59:00,38.3,30.0,29.32,West,262,1.0,1.0,72,0.00,,,0.00,weatherlink.com 1.10,2013-02-13 05:59:00,